Location: Kuppenheim
(48.8299°N, 8.2568°E)
Time: 14:17:02
(UTC+00:00)

Cosmos 2098 Rocket - Pass Details

Date: 20 June 2021
Orbit: 366 x 1176 km, 82.9° (Epoch: 30 July)

Event Time Altitude Azimuth Distance (km) Brightness Sun altitude
Exits shadow 01:13:25 21° 204° (SSW) 1,750 4.7 -14.0°
Maximum altitude 01:16:59 62° 280° (W) 806 3.5 -13.8°
Drops below altitude 10° 01:21:20 10° 2° (N) 1,971 6.7 -13.5°
Sets 01:23:20 0° 6° (N) 2,766 7.8 -13.3°
